Regional Weather Roundup
Issued by NWS Cleveland, OH

Home | Current Version | Previous Version | Graphics & Text | Print | Product List | Glossary On
Versions: 1 2 3 4 5 6 7 8 9 10 11 12 13 14 15 16 17 18 19 20 21 22 23 24 25 26 27 28 29 30 31 32 33 34 35 36 37 38 39 40 41 42 43 44 45 46 47 48 49 50
000
ASUS41 KCLE 050102
RWRCLE
OHIO REGIONAL WEATHER ROUNDUP
NATIONAL WEATHER SERVICE CLEVELAND, OH
900 PM EDT WED MAY 04 2016

NOTE: "FAIR" INDICATES FEW OR NO CLOUDS BELOW 12,000 FEET WITH NO
SIGNIFICANT WEATHER AND/OR OBSTRUCTIONS TO VISIBILITY.

OHZ001>008-015>018-024>027-034-035-043-044-050200-
   NORTHWEST OHIO

CITY           SKY/WX    TMP DP  RH WIND       PRES   REMARKS
DEFIANCE       CLOUDY    44  36  73 W8        29.70R
FINDLAY        CLOUDY    47  38  71 W10       29.68R
TOLEDO EXPRESS CLOUDY    46  40  79 W10       29.68R
TOLEDO EXEC    CLOUDY    48  41  76 W8        29.69R
LIMA           CLOUDY    44  37  76 W15       29.70R
$$

OHZ009>014-019>023-028>033-038-089-050200-
   NORTHEAST OHIO

CITY           SKY/WX    TMP DP  RH WIND       PRES   REMARKS
CLE-HOPKINS    LGT RAIN  52  47  83 NW3       29.69S
CLE-LAKEFRONT  CLOUDY    51  47  86 W5        29.66S
CUY CO. ARPT   CLOUDY    54  45  71 N5        29.68R
LORAIN-ELYRIA  LGT RAIN  48  45  89 NW5       29.68R
ASHTABULA      CLOUDY    54  42  64 W5        29.66R
AKRON-CANTON   CLOUDY    51  45  79 SW5       29.68R
WOOSTER        LGT RAIN  49  47  93 W6        29.68R
MANSFIELD      CLOUDY    46  45  96 W5        29.68R
YOUNGSTOWN     LGT RAIN  53  44  71 W7        29.67R
$$

OHZ042-051>053-060>062-070>072-077>081-050200-
  SOUTHWEST OHIO

CITY           SKY/WX    TMP DP  RH WIND       PRES   REMARKS
CINC-COVINGTON PTCLDY    49  37  63 N9        29.74R
CINC-LUNKEN    PTCLDY    50  38  63 N14       29.76R
HAMILTON       CLOUDY    50  37  61 NW12G23   29.76R
DAYTON         CLOUDY    47  36  65 NW12      29.73S
WRIGHT-PAT AFB CLOUDY    49  38  67 W10G18    29.72S
DAYTON GENERAL CLOUDY    48  36  63 NW10      29.73R
WILMINGTON     MOCLDY    48  38  68 NW14      29.72R
$$

OHZ036-037-039>041-045>050-054>059-063>069-073>076-082>088-050200-
  CENTRAL AND SOUTHEAST OHIO

CITY           SKY/WX    TMP DP  RH WIND       PRES   REMARKS
COLUMBUS       MOCLDY    47  40  76 NW12G20   29.69R
OSU AIRPORT    MOCLDY    48  40  73 NW13      29.69R
BOLTON FIELD   NOT AVBL
RICKENBACK AFB CLEAR     48  41  76 NW9       29.69R
NEWARK         CLOUDY    50  46  86 NW5       29.68R
MARION         CLOUDY    46  42  86 W8        29.70R
LANCASTER      MOCLDY    50  42  74 NW9       29.69R
ZANESVILLE     LGT RAIN  52  46  80 W5        29.68R
NEW PHILLY     LGT RAIN  51  47  86 CALM      29.68R
$$




USA.gov is the U.S. government's official web portal to all federal, state and local government web resources and services.